STARLINK-6199, 56551

Orbit data source: Space-Track

STARLINK-6199, 56551 is a payload satellite owned by SpaceX/Seattle (US) in LEO that was launched on Sun, 14 May 2023 UTC via an FALCON 9 launch vehicle from the Air Force Eastern Test Range (AFETR). Payload-class satellites include a variety of spacecraft equipped with specific instruments for various scientific and technological missions. These include communications satellites like Starlink; space stations such as the ISS; scientific satellites like the Hubble; Earth observation satellites from companies like Planet Labs, Umbra, and HawkEye 360; GPS; miniature CubeSats for education and research; and military/defense satellites.

Loading next visibility...
Identifier
56551, 2023-065BA
Orbit
LEO
Country
Flag of USUS
Related business
Manufacturer
SpaceX/Seattle
Mission
Operational Commercial Communications
Bus & Motor
STARLINK, Unknown motor
Mass
305 kg wet, ~290 kg dry
Launch date (UTC)
2023-05-14 (3 years ago)
Launch vehicle
FALCON 9
Launch site
Air Force Eastern Test Range (AFETR)
Object type
Payload
Rocket body
Debris
Shape & HBR
Box + 1 Pan, 10.1 m
Radar Cross Section
11.087 m², Large (>1 m²)

Expand to show TLE details & history
Last TLE update: 3 days ago

TLE from 3 days ago
0 STARLINK-6199
1 56551U 23065BA  26170.90386386  .00000133  00000-0  14369-4 0  9991
2 56551  43.0068   6.3998 0001222 267.0634  93.0078 15.27577340172104
Epoch: 2026-06-19T21:41Z
TLE epoch observation values (Epoch: 2026-06-19T21:41:33.837Z)
Latitude
-0.00001°
Longitude
132.88264°
Altitude
482.877 km
Speed
7.626 km/s
True Right ascension
00h 25m 35s
True Declination
0° 00' 00"
Sunlit
Object was in daylight at epoch
Visualization orbit readout
Latitude
Unknown
Longitude
Unknown
Altitude
Unknown
Speed
Unknown
Apparent Right ascension
Unknown
Apparent Declination
Unknown
Sunlit
N/A
Visualization observer readout
Local Sidereal Time
21:32:50
Azimuth
Unknown
Elevation
Unknown
Doppler factor
Unknown
Orbital elements
Apogee altitude
485.84 km
Perigee altitude
484.162 km
Semi-major axis
6,863.138 km
Eccentricity
0.00012
Inclination
43.0068°
RAAN
6.3998°
Arg. of periapsis
267.0634°
True anomaly
93.02178°
Mean anomaly
93.0078°
Eccentric anomaly
93.01479°
Mean motion
3.81732 °/min
Orbital period
94.31 mins
BSTAR
0.000014369
Loading maneuver chart data...
Computing Atmospheric mass density...
Loading historical data...
Loading historical data...
Loading historical data...
Loading historical data...
Loading historical data...
Loading historical data...
Loading historical data...

Documentation

Showing up to 5 results
|